www.pogodaiklimat.ru

Погода и климат >> Архив погоды >> Россия >> Приморский край >> Барабаш


ПОГОДА в Барабаше

  • Прогноз погоды в Барабаше
  • Монитор погоды в Барабаше

АРХИВ ПОГОДЫ в Барабаше

Время (UTC), дата Ветер
(напр.,м/с)
 
Видим.   Явления Облачность Т
(С)
Тd
(С)
f
(%)
Тe
(С)
Тes
(С)
Комфортность P
(гПа)
Po
(гПа)
Тmin
(С)
Tmax
(С)
R
(мм)
R24
(мм)
S
(см)
21 18.08 штиль 0 10 км 10/10 300 м
[Sc]
+17.6 +17.3 98 +18 +18 1011.8 1007.6 +17.5
00 19.08 Ю 1 н/о н/о +19.5 +17.2 87 +23 +23 комфорт 1013.0 1008.8
03 19.08 Ю 2 20 км 10 баллов +20.2 +17.0 82 +24 +24 комфорт 1013.5 1009.3
06 19.08 Ю 2 н/о н/о +19.8 +17.0 84 +23 1013.5 1009.3
09 19.08 СЗ 1 20 км 10/10 600 м
[Sc]
+18.7 +16.8 89 +21 +21 комфорт 1013.5 1009.3 +20.7
12 19.08 штиль 0 н/о н/о +17.8 +17.5 98 +18 1014.9 1010.7
15 19.08 В 1 10 км 10 баллов +17.8 +16.5 92 +19 +19 1014.9 1010.7
18 19.08 В 1 н/о н/о +17.3 +16.7 96 +18 1015.0 1010.7
21 19.08 штиль 0 10 км 10/10 300 м
[St]
+17.3 +16.8 97 +17 +17 1013.9 1009.6 +17.1
00 20.08 штиль 0 н/о н/о +20.3 +17.1 82 +23 +23 комфорт 1013.5 1009.3
03 20.08 ЮВ 1 20 км 9 баллов +22.2 +16.9 72 +27 +29 душно 1013.5 1009.3
06 20.08 В 2 н/о н/о +23.8 +18.4 72 +28 1012.1 1008.0
09 20.08 ЮВ 1 50 км 8/6 600 м
[Sc Ci]
+21.4 +18.1 81 +26 +26 душно 1011.2 1007.0 +24.9
12 20.08 Ю 1 н/о н/о +18.4 +17.4 94 +20 1013.5 1009.3
15 20.08 штиль 0 10 км 10 баллов +17.6 +17.3 98 +18 +18 1012.2 1008.0
18 20.08 штиль 0 н/о н/о +17.3 +17.0 98 +17 1012.2 1008.0
21 20.08 штиль 0 4000 м слаб. морось 10/10 300 м
[St]
+17.8 +17.5 98 +18 +18 1010.8 1006.5 +17.2 0.4
00 21.08 ЮВ 2 н/о н/о +17.7 +17.0 96 +18 +18 1011.0 1006.8
03 21.08 ЮВ 4 20 км слаб. дождь 10 баллов +17.4 +16.3 93 +17 +17 1010.9 1006.7
06 21.08 штиль 0 н/о н/о +17.2 +16.6 96 +17 1009.5 1005.3
09 21.08 ЮВ 1 10 км 10/10 300 м
[Sc]
+17.2 +16.8 97 +18 +18 1008.1 1003.8 +18.5 20
12 21.08 штиль 0 н/о н/о +17.2 +16.9 98 +17 1009.5 1005.3
15 21.08 СЗ 1 4000 м слаб. морось 10 баллов +17.2 +16.9 98 +18 +18 1009.5 1005.3
18 21.08 штиль 0 н/о н/о +16.9 +16.6 98 +17 1008.2 1004.0
21 21.08 СЗ 1 4000 м слаб. морось 10/10 300 м
[St]
+17.1 +16.8 98 +18 +18 1007.5 1003.3 +16.8 3
00 22.08 СЗ 1 н/о н/о +18.4 +18.1 98 +20 +20 1007.2 1003.0
03 22.08 ЮВ 1 20 км в посл. час дождь 10 баллов +20.4 +19.2 93 +25 +25 комфорт 1008.2 1004.0
06 22.08 Ю 3 н/о н/о +23.4 +17.6 70 +29 1006.8 1002.7
09 22.08 штиль 0 20 км 9/9 600 м
[Sc]
+19.5 +16.9 85 +21 +22 комфорт 1005.2 1001.0 +23.9 0.0
12 22.08 СЗ 1 н/о н/о +16.8 +16.5 98 +18 1006.9 1002.7
15 22.08 штиль 0 10 км 10 баллов +17.5 +17.2 98 +17 +17 1006.9 1002.7
18 22.08 Ю 1 н/о н/о +16.7 +16.4 98 +18 1006.9 1002.7
21 22.08 штиль 0 20 км 8/8 600 м
[Sc]
+16.5 +16.2 98 +16 +16 1005.1 1000.9 +16.5
00 23.08 штиль 0 н/о н/о +19.9 +17.4 86 +22 +22 комфорт 1005.7 1001.5
03 23.08 Ю 1 50 км 7 баллов +24.2 +16.9 64 +28 +33 душно 1005.4 1001.3
06 23.08 З 1 н/о н/о +21.4 +18.6 84 +26 1005.5 1001.3
09 23.08 штиль 0 50 км слаб. ливневой дождь 6/6 600 м
[Cb cap]
+20.2 +19.0 93 +24 +24 комфорт 1005.5 1001.3 +25.0 4
12 23.08 штиль 0 н/о н/о +17.8 +17.5 98 +18 1008.2 1004.0
15 23.08 штиль 0 10 км 7 баллов +16.7 +16.4 98 +17 +17 1009.5 1005.3
18 23.08 штиль 0 н/о н/о +16.7 +16.2 97 +17 1009.5 1005.3
21 23.08 штиль 0 2000 м дымка 10/10 300 м
[St]
+16.9 +16.6 98 +17 +17 1009.7 1005.4 +16.5 18
00 24.08 С 1 н/о н/о +17.0 +16.6 97 +18 +18 1011.1 1006.9
03 24.08 ЮЗ 2 50 км 7 баллов +19.4 +15.5 78 +22 +26 комфорт 1012.2 1008.0
06 24.08 Ю 1 н/о н/о +21.6 +16.1 71 +25 1009.5 1005.3
09 24.08 ЮВ 1 10 км слаб. ливневой дождь 8/8 600 м
[Cb cap]
+17.5 +16.4 93 +19 +19 1010.7 1006.5 +22.6 4
12 24.08 штиль 0 н/о н/о +16.5 +16.0 97 +16 1012.3 1008.0
15 24.08 штиль 0 10 км 10 баллов +16.7 +16.4 98 +17 +17 1013.6 1009.3
18 24.08 СЗ 1 н/о н/о +16.4 +16.1 98 +17 1013.6 1009.3
21 24.08 штиль 0 500 м туман ?/? +16.1 +16.1 100 +16 +16 1013.0 1008.8 +15.8 2
00 25.08 СЗ 1 н/о н/о +18.6 +17.6 94 +21 +21 комфорт 1013.6 1009.4
03 25.08 Ю 1 50 км 7 баллов +23.1 +16.4 66 +28 +33 душно 1013.5 1009.3
06 25.08 ЮВ 2 н/о н/о +23.0 +16.5 67 +28 1012.2 1008.0
09 25.08 штиль 0 50 км 6/6 600 м
[Cu med, cong]
+20.0 +18.3 90 +23 +23 комфорт 1012.1 1007.8 +24.9 0.1
12 25.08 СЗ 1 н/о н/о +16.4 +16.1 98 +17 1015.0 1010.7
15 25.08 СЗ 1 10 км 6 баллов +16.5 +16.2 98 +17 +17 1013.6 1009.3
18 25.08 штиль 0 н/о н/о +16.0 +15.7 98 +16 1013.6 1009.3

 

Местоположение метеостанции Барабаш (Приморский край, Россия): широта 43.20 долгота 131.40 высота над уровнем моря 36 м.

В архиве по умолчанию представлена погода в Барабаше за последнюю неделю. Архивные данные за месяц целиком и за предыдущие месяцы, начиная с января 2011 года, Вы можете получить, выбрав интересующий диапазон дат из раскрывающегося списка и нажав кнопку "Ввод!".


*Определитесь, кто Вы:
робот инопланетянин человек

Внимание! Время в таблицах - всемирное. Для получения местного времени необходимо прибавить поправку, которая равна 10 ч.

Смотрите также архив погоды в соседних городах и на ближайших метеорологических станциях:

Погода в Владивостоке (Приморский край, Россия) (42 км)
Погода на Мысе Назимова (Приморский край, Россия) (44 км)
Погода в Гамове (Приморский край, Россия) (74 км)
Погода в Посьете (Приморский край, Россия) (78 км)
Погода в Тимирязевском (Приморский край, Россия) (86 км)
Погода в Многоудобном (Приморский край, Россия) (92 км)
Погода в Полтавке (Приморский край, Россия) (93 км)
Погода в Находке (Приморский край, Россия) (122 км)
Погода в Сонбонге (КНДР) (127 км)
Погода в Партизанске (Приморский край, Россия) (130 км)

Пояснения к столбцам:

Ветер - указаны скорость ветра в м/с - средняя за 10 мин, порывы в срок и между сроками (в фигурных скобках) и направление, откуда дует ветер: С - северный, СВ - северо-восточный, В - восточный, ЮВ - юго-восточный, Ю - южный, ЮЗ - юго-западный, З - западный, СЗ - северо-западный.
Видимость - горизонтальная дальность видимости в метрах или километрах. При видимости от 1 до 10 км при отсутствии осадков обычно наблюдается дымка, при ухудшении видимости до 1 км и менее - туман. В сухую погоду видимость может ухудшаться дымом, пылью или мглою.
Явления - указаны атмосферные явления, наблюдавшиеся в срок или в последний час перед сроком; фигурными скобками обозначены явления, наблюдавшиеся между сроками (за 1-3 часа до срока); квадратными скобками обозначены град или гололедные отложения с указанием их диаметра в мм.
Облачность - указаны через наклонную черту общая и нижняя облачность в баллах и высота нижней границы облаков в метрах; квадратными скобками обозначены формы облаков: Ci - перистые, Cs - перисто-слоистые, Cc - перисто-кучевые, Ac - высококучевые, As - высокослоистые, Sc - слоисто-кучевые, Ns - слоисто-дождевые, Cu - кучевые, Cb - кучево-дождевые. Подробнее классификацию облаков см. в Атласе облаков (PDF).
T - Температура воздуха - температура, измеренная на высоте 2 м над землей.
Td - Температура точки росы - температура, при понижении до которой содержащийся в воздухе водяной пар достигнет насыщения.
f - Относительная влажность воздуха - влажноcть воздуха, измеренная на высоте 2 м над землей.
Te - Эффективная температура - температура, которую ощущает одетый по сезону человек в тени. Характеристика душности погоды. При расчете учитывается влияние влажности воздуха и скорости ветра на теплоощущения человека.
Tes - Эффективная температура на солнце - температура, которую ощущает человек, с поправкой на солнечный нагрев. Характеристика знойности погоды. Зависит от высоты солнца над горизонтом, облачности и скорости ветра. Ночью, в пасмурную погоду, а также при ветре 12 м/с и более поправка равна нулю.
P - Атмосферное давление - приведенное к уровню моря атмосферное давление.
Po - Атмосферное давление - измеренное на уровне метеостанции атмосферное давление.
Tmin - Минимальная температура - минимум температуры воздуха на высоте 2 м над землей.
Tmax - Максимальная температура - максимум температуры воздуха на высоте 2 м над землей.
R - Количество осадков - Количество выпавших осадков за период времени, мм. При наведении курсора мыши на число - период времени, за который выпало указанное количество осадков.
R24 - Количество осадков - Количество выпавших осадков за 24 часа, мм.
S - Снежный покров - Высота снежного покрова, см. При наведении курсора мыши на число - состояние снежного покрова и степень покрытия местности в баллах.